Flag for Norway Weather past 2 weeks in Fosnavåg, Norway

Now
45 °F

Cool.


Feels Like: 41 °F
Forecast: 40 / 50 °F
Wind: 7 mph from Northeast

Location: Svinoy Fyr

Current Time: Apr 19, 2015 at 3:15:39 PM

Latest Report: Apr 19, 2015 at 2:00 PM


Visibility: N/A

Pressure: 30.48 "Hg

Humidity: 82%

Dew point: 40 °F

Location of FosnavågLocation

Historic Weather in Fosnavåg — Graph

°F

Fosnavåg temperature yesterday

Maximum temperature yesterday: 44 °F (at 4:00 PM)
Minimum temperature yesterday: 41 °F (at 7:00 AM)
Average temperature yesterday: 43 °F

Past Weeks' High & Low Weather Summary

 TemperatureHumidityPressure
High53 °F (Apr 11, 11:00 AM)95% (Apr 7, 2:00 PM)30.49 "Hg (Apr 7, 2:00 PM)
Low34 °F (Apr 13, 6:00 AM)42% (Apr 11, 10:00 AM)29.44 "Hg (Apr 11, 2:00 PM)
Average43 °F77%29.98 "Hg
* Reported Apr 4 2:00 PM — Apr 19 2:00 PM, Fosnavåg, Weather by CustomWeather, © 2015

Note: Actual official high and low records may vary slightly from our data, if they occured in-between our weather recording intervals... More about our weather records

Advertising

Fosnavåg weather history for previous 24 hours

 ConditionsComfort  
Time TempWeatherWind HumidityBarometerVisibility
2:00 PM
Sun, Apr 19
45 °FCool.7 mph82%30.48 "HgN/A
12:00 PM45 °FQuite cool.7 mph80%30.48 "HgN/A
11:00 AM45 °FQuite cool.7 mph80%30.49 "HgN/A
10:00 AM44 °FQuite cool.7 mph81%30.49 "HgN/A
9:00 AM44 °FQuite cool.7 mph89%30.49 "HgN/A
8:00 AM43 °FQuite cool.7 mph86%30.48 "HgN/A
3:00 AM43 °FQuite cool.8 mph88%30.47 "HgN/A
2:00 AM43 °FQuite cool.6 mph92%30.45 "HgN/A
1:00 AM43 °FQuite cool.7 mph93%30.46 "HgN/A
12:00 AM44 °FQuite cool.7 mph93%30.45 "HgN/A
11:00 PM
Sat, Apr 18
43 °FQuite cool.7 mph92%30.44 "HgN/A
10:00 PM43 °FQuite cool.7 mph92%30.43 "HgN/A
9:00 PM43 °FQuite cool.7 mph92%30.42 "HgN/A
8:00 PM43 °FQuite cool.6 mph92%30.42 "HgN/A
4:00 PM44 °FQuite cool.6 mph80%30.40 "HgN/A
3:00 PM44 °FQuite cool.7 mph79%30.40 "HgN/A
Weather by CustomWeather, © 2015

See weather overviewHow to use our weather pages